Weather History for Camdenton, MO

Change the Weather History Date:

Friday, January 4, 2013

  Actual Average (KAIZ) Record (KAIZ)
Temperature  
Mean Temperature 34 °F -  
Max Temperature 42 °F 40 °F 66 °F (1997)
Min Temperature 26 °F 24 °F 3 °F (1999)
Degree Days  
Heating Degree Days 31    
Moisture  
Dew Point 23 °F    
Average Humidity 65    
Maximum Humidity 100    
Minimum Humidity 42    
Precipitation  
Precipitation 0.00 in - - ()
Sea Level Pressure  
Sea Level Pressure 30.36 in    
Wind  
Wind Speed 4 mph (SSW)    
Max Wind Speed 12 mph    
Max Gust Speed 17 mph    
Visibility 10 miles    
Events      
Averages and records for this station are not official NWS values.
T = Trace of Precipitation, MM = Missing Value Source: NWS Daily Summary

Daily Weather History Graph

Daily Weather History Graph

Search for Another Location

Airport:

Trip Planner

Search our weather history database for the weather conditions in past years. The results will help you decide how hot, cold, wet, or windy it might be!

Date:

Astronomy

Jan. 04, 2013 Rise Set
Actual Time 7:27 AM CST 5:04 PM CST
Civil Twilight 6:57 AM CST 5:34 PM CST
Nautical Twilight 6:25 AM CST 6:07 PM CST
Astronomical Twilight 5:53 AM CST 6:38 PM CST
Moon No Moon Rise 11:17 AM CST (1/4)
Length of Visible Light 10h 36m
Length of Day
9h 37m
Waning Gibbous, 55% of the Moon is Illuminated
Jan 4
Waning Gibbous
Jan 4
Last Quarter
Jan 11
New
Jan 18
First Quarter
Jan 26
Full

Hourly Weather History & Observations

Time (CST) Temp. Windchill Dew Point Humidity Pressure Visibility Wind Dir Wind Speed Gust Speed Precip Events Conditions
12:15 AM 30.2 °F - 26.6 °F 86% 30.39 in 10.0 mi Calm Calm - N/A   Overcast
12:35 AM 30.2 °F - 26.6 °F 86% 30.39 in 10.0 mi Calm Calm - N/A   Overcast
12:55 AM 30.2 °F - 26.6 °F 86% 30.39 in 10.0 mi Calm Calm - N/A   Overcast
1:15 AM 30.2 °F - 26.6 °F 86% 30.39 in 10.0 mi Calm Calm - N/A   Overcast
1:35 AM 30.2 °F - 23.0 °F 75% 30.38 in 10.0 mi Calm Calm - N/A   Overcast
1:55 AM 30.2 °F - 24.8 °F 80% 30.39 in 10.0 mi Calm Calm - N/A   Overcast
2:15 AM 30.2 °F - 23.0 °F 75% 30.39 in 10.0 mi Calm Calm - N/A   Overcast
2:35 AM 30.2 °F - 23.0 °F 75% 30.39 in 10.0 mi Calm Calm - N/A   Scattered Clouds
2:55 AM 30.2 °F - 23.0 °F 75% 30.39 in 10.0 mi Calm Calm - N/A   Scattered Clouds
3:15 AM 28.4 °F - 23.0 °F 80% 30.39 in 10.0 mi Calm Calm - N/A   Overcast
5:55 AM 28.4 °F 24.6 °F 26.6 °F 93% 30.39 in 10.0 mi SW 3.5 mph - N/A   Overcast
6:15 AM 28.4 °F 23.3 °F 26.6 °F 93% 30.39 in 10.0 mi SW 4.6 mph - N/A   Overcast
6:35 AM 28.4 °F - 26.6 °F 93% 30.40 in 10.0 mi Calm Calm - N/A   Overcast
6:55 AM 26.6 °F - 26.6 °F 100% 30.40 in 10.0 mi Calm Calm - N/A   Mostly Cloudy
7:15 AM 26.6 °F 22.6 °F 24.8 °F 93% 30.40 in 10.0 mi SW 3.5 mph - N/A   Clear
7:35 AM 26.6 °F 22.6 °F 26.6 °F 100% 30.41 in 10.0 mi SSW 3.5 mph - N/A   Clear
7:55 AM 26.6 °F 22.6 °F 24.8 °F 93% 30.41 in 10.0 mi SW 3.5 mph - N/A   Clear
8:15 AM 26.6 °F 22.6 °F 24.8 °F 93% 30.42 in 10.0 mi SW 3.5 mph - N/A   Clear
8:35 AM 28.4 °F 23.3 °F 26.6 °F 93% 30.42 in 10.0 mi WSW 4.6 mph - N/A   Clear
8:55 AM 28.4 °F 24.6 °F 24.8 °F 86% 30.42 in 10.0 mi SW 3.5 mph - N/A   Clear
9:15 AM 30.2 °F 25.4 °F 24.8 °F 80% 30.42 in 10.0 mi SSW 4.6 mph - N/A   Clear
9:35 AM 30.2 °F 22.6 °F 23.0 °F 75% 30.43 in 10.0 mi SW 8.1 mph - N/A   Clear
9:55 AM 32.0 °F 26.4 °F 23.0 °F 69% 30.43 in 10.0 mi SSW 5.8 mph - N/A   Clear
10:15 AM 32.0 °F 24.2 °F 21.2 °F 64% 30.43 in 10.0 mi SSW 9.2 mph 16.1 mph N/A   Clear
10:35 AM 32.0 °F 23.0 °F 21.2 °F 64% 30.43 in 10.0 mi SSW 11.5 mph 16.1 mph N/A   Clear
10:55 AM 32.0 °F 23.0 °F 21.2 °F 64% 30.42 in 10.0 mi SSW 11.5 mph - N/A   Clear
11:15 AM 33.8 °F 27.0 °F 23.0 °F 65% 30.42 in 10.0 mi SSW 8.1 mph - N/A   Clear
11:35 AM 33.8 °F 25.3 °F 21.2 °F 60% 30.41 in 10.0 mi SW 11.5 mph - N/A   Clear
11:55 AM 35.6 °F 29.2 °F 21.2 °F 56% 30.40 in 10.0 mi South 8.1 mph - N/A   Clear
12:15 PM 35.6 °F 27.5 °F 19.4 °F 52% 30.39 in 10.0 mi SW 11.5 mph - N/A   Clear
12:35 PM 37.4 °F 30.8 °F 21.2 °F 52% 30.38 in 10.0 mi SW 9.2 mph - N/A   Clear
12:55 PM 37.4 °F 30.3 °F 21.2 °F 52% 30.37 in 10.0 mi SSW 10.4 mph - N/A   Clear
1:15 PM 37.4 °F 29.8 °F 21.2 °F 52% 30.37 in 10.0 mi SW 11.5 mph 17.3 mph N/A   Clear
1:35 PM 37.4 °F 31.4 °F 21.2 °F 52% 30.36 in 10.0 mi SSW 8.1 mph - N/A   Clear
1:55 PM 39.2 °F 34.2 °F 23.0 °F 52% 30.35 in 10.0 mi SW 6.9 mph - N/A   Clear
2:15 PM 41.0 °F 34.7 °F 23.0 °F 49% 30.34 in 10.0 mi SW 10.4 mph 16.1 mph N/A   Clear
2:35 PM 41.0 °F 35.8 °F 21.2 °F 45% 30.33 in 10.0 mi SW 8.1 mph - N/A   Clear
2:55 PM 41.0 °F 35.8 °F 21.2 °F 45% 30.33 in 10.0 mi SSW 8.1 mph - N/A   Clear
3:15 PM 41.0 °F 37.1 °F 21.2 °F 45% 30.33 in 10.0 mi SW 5.8 mph - N/A   Clear
3:35 PM 42.8 °F 40.1 °F 21.2 °F 42% 30.32 in 10.0 mi SW 4.6 mph - N/A   Clear
3:55 PM 42.8 °F 39.3 °F 21.2 °F 42% 30.32 in 10.0 mi SSW 5.8 mph - N/A   Clear
4:15 PM 41.0 °F 35.8 °F 21.2 °F 45% 30.32 in 10.0 mi SSW 8.1 mph - N/A   Clear
4:35 PM 41.0 °F 37.1 °F 21.2 °F 45% 30.31 in 10.0 mi South 5.8 mph - N/A   Clear
4:55 PM 41.0 °F 37.1 °F 21.2 °F 45% 30.32 in 10.0 mi SSW 5.8 mph - N/A   Clear
5:15 PM 39.2 °F 37.0 °F 21.2 °F 49% 30.31 in 10.0 mi South 3.5 mph - N/A   Clear
5:35 PM 39.2 °F 35.9 °F 21.2 °F 49% 30.32 in 10.0 mi South 4.6 mph - N/A   Clear
5:55 PM 37.4 °F 33.8 °F 21.2 °F 52% 30.32 in 10.0 mi South 4.6 mph - N/A   Clear
6:15 PM 37.4 °F 33.8 °F 21.2 °F 52% 30.31 in 10.0 mi South 4.6 mph - N/A   Clear
6:35 PM 37.4 °F 32.8 °F 21.2 °F 52% 30.32 in 10.0 mi South 5.8 mph - N/A   Clear
6:55 PM 35.6 °F 30.7 °F 21.2 °F 56% 30.31 in 10.0 mi South 5.8 mph - N/A   Clear
7:15 PM 35.6 °F 30.7 °F 21.2 °F 56% 30.32 in 10.0 mi SSE 5.8 mph - N/A   Clear
7:35 PM 35.6 °F 31.7 °F 21.2 °F 56% 30.32 in 10.0 mi SSE 4.6 mph - N/A   Clear
7:55 PM 35.6 °F 29.9 °F 21.2 °F 56% 30.32 in 10.0 mi South 6.9 mph - N/A   Clear
8:15 PM 35.6 °F 30.7 °F 21.2 °F 56% 30.32 in 10.0 mi South 5.8 mph - N/A   Clear
8:35 PM 35.6 °F 29.9 °F 21.2 °F 56% 30.31 in 10.0 mi South 6.9 mph - N/A   Clear
9:15 PM 33.8 °F 28.6 °F 21.2 °F 60% 30.31 in 10.0 mi SSW 5.8 mph - N/A   Clear
9:35 PM 33.8 °F 28.6 °F 21.2 °F 60% 30.31 in 10.0 mi South 5.8 mph - N/A   Clear
9:55 PM 33.8 °F 29.6 °F 21.2 °F 60% 30.31 in 10.0 mi SSW 4.6 mph - N/A   Clear
10:15 PM 33.8 °F 28.6 °F 21.2 °F 60% 30.31 in 10.0 mi South 5.8 mph - N/A   Clear
10:35 PM 33.8 °F 28.6 °F 21.2 °F 60% 30.31 in 10.0 mi South 5.8 mph - N/A   Clear
10:55 PM 33.8 °F 27.7 °F 21.2 °F 60% 30.31 in 10.0 mi South 6.9 mph - N/A   Clear
11:15 PM 33.8 °F 28.6 °F 21.2 °F 60% 30.31 in 10.0 mi South 5.8 mph - N/A   Clear
11:35 PM 33.8 °F 27.7 °F 21.2 °F 60% 30.30 in 10.0 mi SSW 6.9 mph - N/A   Clear
11:55 PM 33.8 °F 28.6 °F 21.2 °F 60% 30.29 in 10.0 mi SSW 5.8 mph - N/A   Clear